Location: Arroyo Retuerta
(40.5469°N, 4.3534°W)
Time: 11:49:31
(UTC+00:00)

NOSS 3-4 (A) - Pass Details

Date: 01 June 2020
Orbit: 892 x 1320 km, 63.4° (Epoch: 02 July)

Event Time Altitude Azimuth Distance (km) Brightness Sun altitude
Exits shadow 23:23:59 32° 240° (WSW) 1,506 4.3 -26.1°
Maximum altitude 23:26:44 62° 308° (NW) 1,032 3.7 -26.2°
Drops below altitude 10° 23:32:56 10° 29° (NNE) 2,715 6.4 -26.5°
Sets 23:35:39 0° 33° (NNE) 3,721 7.2 -26.6°
